Weather History for GMME - November, 2012

Change the Weather History Date:

Thursday, November 15, 2012

  Actual Average Record
Temperature  
Mean Temperature 60 °F -  
Max Temperature 71 °F 65 °F 77 °F (2006)
Min Temperature 50 °F 48 °F 44 °F (2001)
Degree Days  
Heating Degree Days 4    
Growing Degree Days 10 (Base 50)    
Moisture  
Dew Point 53 °F    
Average Humidity 80    
Maximum Humidity 100    
Minimum Humidity 47    
Precipitation  
Precipitation 0.00 in 0.13 in - ()
Sea Level Pressure  
Sea Level Pressure 29.95 in    
Wind  
Wind Speed 2 mph ()    
Max Wind Speed 10 mph    
Max Gust Speed -    
Visibility 3.9 miles    
Events      
Averages and records for this station are not official NWS values.
T = Trace of Precipitation, MM = Missing Value Source: Averaged Metar Reports

Daily Weather History Graph

Daily Weather History Graph

Search for Another Location

Airport or City:

Trip Planner

Search our weather history database for the weather conditions in past years. The results will help you decide how hot, cold, wet, or windy it might be!

Date:

Astronomy

Nov. 15, 2012 Rise Set
Actual Time 6:59 AM WET 5:23 PM WET
Civil Twilight 6:33 AM WET 5:49 PM WET
Nautical Twilight 6:03 AM WET 6:19 PM WET
Astronomical Twilight 5:33 AM WET 6:49 PM WET
Moon 8:37 AM WET (11/15) 7:02 PM WET (11/15)
Length of Visible Light 11h 16m
Length of Day
10h 23m
Waxing Crescent, 4% of the Moon is Illuminated
Nov 15
Waxing Crescent
Nov 20
First Quarter
Nov 28
Full
Dec 6
Last Quarter
Dec 13
New

Hourly Weather History & Observations

Time (WET) Temp. Dew Point Humidity Pressure Visibility Wind Dir Wind Speed Gust Speed Precip Events Conditions
12:00 AM 55 °F 53 °F 92% 29.91 in 4 mi Calm Calm - -   Clear
12:00 AM 55.4 °F 53.6 °F 94% 29.89 in 3.7 mi Calm Calm - N/A   Unknown
12:30 AM 55.4 °F 53.6 °F 94% 29.89 in 3.7 mi Calm Calm - N/A   Unknown
1:00 AM 55.4 °F 51.8 °F 88% 29.89 in 3.7 mi Calm Calm - N/A   Unknown
1:30 AM 53.6 °F 51.8 °F 94% 29.89 in 3.7 mi Calm Calm - N/A   Unknown
2:00 AM 55.4 °F 51.8 °F 88% 29.89 in 3.7 mi SE 5.8 mph - N/A   Unknown
2:30 AM 55.4 °F 51.8 °F 88% 29.89 in 3.7 mi Variable 1.2 mph - N/A   Unknown
3:00 AM 55 °F 51 °F 82% 29.90 in 4 mi Calm Calm - -   Clear
3:00 AM 55.4 °F 51.8 °F 88% 29.89 in 3.7 mi Calm Calm - N/A   Unknown
3:30 AM 55.4 °F 50.0 °F 82% 29.89 in 3.7 mi Calm Calm - N/A   Unknown
4:00 AM 55.4 °F 50.0 °F 82% 29.89 in 3.7 mi Calm Calm - N/A   Unknown
4:30 AM 53.6 °F 50.0 °F 88% 29.89 in 3.7 mi Calm Calm - N/A   Unknown
5:00 AM 51.8 °F 48.2 °F 88% 29.89 in 3.7 mi Calm Calm - N/A   Unknown
5:30 AM 51.8 °F 50.0 °F 94% 29.89 in 3.7 mi Calm Calm - N/A   Unknown
6:00 AM 51 °F 48 °F 87% 29.93 in 4 mi Calm Calm - -   Clear
6:00 AM 50.0 °F 48.2 °F 94% 29.92 in 3.7 mi Calm Calm - N/A   Unknown
6:30 AM 51.8 °F 50.0 °F 94% 29.92 in 3.7 mi Calm Calm - N/A   Unknown
7:00 AM 55.4 °F 50.0 °F 82% 29.92 in 3.7 mi Calm Calm - N/A   Unknown
7:30 AM 57.2 °F 51.8 °F 82% 29.95 in 3.7 mi SSW 8.1 mph - N/A   Unknown
8:00 AM 57.2 °F 53.6 °F 88% 29.95 in 3.7 mi SSW 6.9 mph - N/A   Unknown
8:30 AM 59.0 °F 55.4 °F 88% 29.98 in 3.7 mi SSW 6.9 mph - N/A   Unknown
9:00 AM 61 °F 56 °F 77% 29.99 in 4 mi SSW 8.1 mph - -   Mostly Cloudy
9:00 AM 60.8 °F 55.4 °F 82% 29.98 in 3.7 mi SSW 8.1 mph - N/A   Scattered Clouds
9:30 AM 62.6 °F 55.4 °F 77% 29.98 in 3.7 mi SW 10.4 mph - N/A   Scattered Clouds
10:00 AM 64.4 °F 57.2 °F 77% 29.98 in 3.7 mi SW 9.2 mph - N/A   Scattered Clouds
11:00 AM 68.0 °F 55.4 °F 64% 29.98 in 3.7 mi WSW 8.1 mph - N/A   Scattered Clouds
11:30 AM 69.8 °F 55.4 °F 60% 29.98 in 5.0 mi Calm Calm - N/A   Scattered Clouds
12:00 PM 69 °F 55 °F 52% 29.98 in 5 mi WSW 6.9 mph - -   Partly Cloudy
12:00 PM 69.8 °F 55.4 °F 60% 29.98 in 5.0 mi WSW 6.9 mph - N/A   Scattered Clouds
12:30 PM 69.8 °F 53.6 °F 56% 29.98 in 5.0 mi West 4.6 mph - N/A   Scattered Clouds
1:00 PM 71.6 °F 53.6 °F 53% 29.95 in 5.0 mi WNW 1.2 mph - N/A   Scattered Clouds
1:30 PM 71.6 °F 53.6 °F 53% 29.95 in 5.0 mi Variable 2.3 mph - N/A   Scattered Clouds
2:00 PM 71.6 °F 53.6 °F 53% 29.95 in 5.0 mi Calm Calm - N/A   Scattered Clouds
2:30 PM 69.8 °F 51.8 °F 53% 29.95 in 5.0 mi WNW 5.8 mph - N/A   Scattered Clouds
3:00 PM 69 °F 53 °F 47% 29.94 in 5 mi NW 5.8 mph - -   Partly Cloudy
3:00 PM 69.8 °F 53.6 °F 56% 29.95 in 5.0 mi NW 5.8 mph - N/A   Scattered Clouds
3:30 PM 68.0 °F 55.4 °F 64% 29.95 in 5.0 mi NW 5.8 mph - N/A   Scattered Clouds
4:00 PM 68.0 °F 55.4 °F 64% 29.95 in 5.0 mi NW 5.8 mph - N/A   Scattered Clouds
4:30 PM 66.2 °F 55.4 °F 68% 29.95 in 5.0 mi NNW 3.5 mph - N/A   Scattered Clouds
5:00 PM 66.2 °F 57.2 °F 73% 29.95 in 5.0 mi North 2.3 mph - N/A   Scattered Clouds
5:30 PM 60.8 °F 55.4 °F 82% 29.95 in 3.7 mi Calm Calm - N/A   Partly Cloudy
6:00 PM - - %  in - Calm Calm - -  
6:00 PM 59.0 °F 55.4 °F 88% 29.95 in 3.1 mi Calm Calm - N/A   Partly Cloudy
6:30 PM 57.2 °F 55.4 °F 94% 29.95 in 3.1 mi Calm Calm - N/A   Partly Cloudy
7:00 PM 55.4 °F 53.6 °F 94% 29.98 in 3.1 mi Calm Calm - N/A   Partly Cloudy
7:30 PM 55.4 °F 51.8 °F 88% 29.98 in 3.1 mi Calm Calm - N/A   Partly Cloudy
8:00 PM 53.6 °F 51.8 °F 94% 29.98 in 3.1 mi Calm Calm - N/A   Partly Cloudy
8:30 PM 57.2 °F 55.4 °F 94% 29.98 in 3.1 mi ESE 5.8 mph - N/A   Partly Cloudy
9:00 PM 54 °F 52 °F 92% 30.00 in 3 mi Calm Calm - -   Scattered Clouds
9:00 PM 53.6 °F 51.8 °F 94% 29.98 in 3.1 mi Calm Calm - N/A   Partly Cloudy
9:30 PM 53.6 °F 51.8 °F 94% 30.01 in 3.1 mi Calm Calm - N/A   Partly Cloudy
10:00 PM 55.4 °F 55.4 °F 100% 30.01 in 3.1 mi SE 3.5 mph - N/A   Partly Cloudy
10:30 PM 55.4 °F 53.6 °F 94% 29.98 in 3.1 mi Calm Calm - N/A   Partly Cloudy
11:00 PM 57.2 °F 55.4 °F 94% 29.98 in 3.1 mi Calm Calm - N/A   Partly Cloudy
11:30 PM 55.4 °F 53.6 °F 94% 29.98 in 3.1 mi Calm Calm - N/A   Partly Cloudy